Find Starlink 35005

NORAD ID: 65456 Int'l Des: 2025-194 Owner: SPXS Country: US Constellation: starlink operational
LEOCIRCULARRETROGRADESSO

当前视图

正在加载3D地球...

关于 Starlink 35005

正在加载描述...

即将过境

Passes for default location (London). Set your location on the main map for personalized predictions.

高度历史

Loading altitude history...

两行轨道根数

1 65456U 25194Y 26150.04457345 .00007659 00000-0 53412-3 0 9998
2 65456 97.4305 4.1689 0002006 95.9164 264.2292 15.05663924 41896
Epoch: May 30, 2026 • Age: 10 hours

当前状态

高度 551.4 km
速度 7.59 km/s
星下点 16.14°N, 128.28°E
发射日期 Sep 3, 2025
运行时间 0.7 years
类型 internet

技术详情

分类 Payload
质量 575.00 kg
干质量 530.00 kg
总质量 575.00 kg
长度 0.30 m
直径 4.10 m
跨度 29.00 m
形状 Box + pan
制造商 SPXS
平台类型 Starlink V2MO
阶段状态 In Orbit
所有者/国家 SPXS/US

Most Searched